Location: Kalispell
(48.1967°N, 114.3128°W)
Time: 21:39:22
(UTC-06:00)

Amateur Radio Satellites - All Passes

Search period start: 01 May 2016 21:09
Search period end: 02 May 2016 21:09
Location: Kalispell, 48.1967°N, 114.3128°W

Satellite Date Start Highest point End Downlink Frequencies (MHz)
Time Altitude Azimuth
AIST 2 01 May 21:11:37 21:14:12 16° 112° (ESE) 21:16:49 435.215
PCSat 01 May 21:15:37 21:16:38 10° 354° (N) 21:17:38 145.827
DELFI C3 01 May 21:18:35 21:21:08 17° 62° (ENE) 21:23:42 145.870
BEESAT 3 01 May 21:21:53 21:25:24 29° 320° (NW) 21:28:55 437.485
CANX-2 01 May 21:24:13 21:28:10 39° 263° (W) 21:32:09 2200.000
BEESAT 2 01 May 21:26:26 21:30:12 39° 316° (NW) 21:34:00 435.950
AAUSAT CUBESAT 2 01 May 21:28:29 21:32:36 87° 256° (WSW) 21:36:45 437.432
Oscar 11 01 May 21:37:48 21:41:59 51° 71° (ENE) 21:46:11 145.826/435.025
HO-68 01 May 21:45:10 21:51:49 41° 263° (W) 21:58:31 435.675
FUNcube-1 01 May 21:47:28 21:51:52 54° 72° (ENE) 21:56:13 145.935
DOVE 4 01 May 21:53:47 21:55:51 12° 276° (W) 21:57:59 437.250
Cosmos 2491 01 May 21:55:18 21:57:15 11° 293° (WNW) 21:59:14 435.465 / 435.565
UWE-3 01 May 21:55:27 22:00:06 85° 255° (WSW) 22:04:42 435.000/436.395/437.385
CUTE 1.7 + AOD 2 01 May 21:58:13 22:01:26 21° 268° (W) 22:04:40 437.475
CUBEBUG 2 01 May 22:00:29 22:05:09 57° 260° (W) 22:09:46 437.445
HUMSAT D 01 May 22:07:37 22:11:08 26° 66° (ENE) 22:14:38 437.325/437.525
YUBILEINY 01 May 22:09:03 22:16:15 28° 299° (WNW) 22:23:28 435.215
AO-85 01 May 22:10:04 22:15:02 70° 49° (NE) 22:19:31 145.980
PRISM 01 May 22:11:12 22:15:24 88° 97° (E) 22:19:35 437.425
RS-15 01 May 22:27:43 22:38:20 49° 112° (ESE) 22:49:29 29.354- 29.394
SEEDS 01 May 22:28:48 22:31:03 14° 271° (W) 22:33:18 437.485
ZACube-1 01 May 22:29:04 22:33:33 57° 260° (W) 22:37:57 437.345
Cosmos 2504 01 May 22:30:14 22:37:18 54° 286° (WNW) 22:44:20 435.465 / 435.565
COMPASS 1 01 May 22:33:49 22:36:27 16° 270° (W) 22:39:07 437.405
STRAND 1 01 May 22:42:46 22:46:12 18° 303° (WNW) 22:49:36 437.568
VELOX 1 01 May 22:46:53 22:49:02 13° 57° (ENE) 22:51:11 145.980
CINEMA 3 01 May 22:47:12 22:47:50 10° 276° (W) 22:48:28 145.822/145.860
AIST 2 01 May 22:48:07 22:52:14 67° 310° (NW) 22:56:23 435.215
DX 1 01 May 22:48:08 22:49:58 12° 56° (NE) 22:51:48 434.975-435.025
DELFI C3 01 May 22:51:48 22:55:39 51° 260° (W) 22:59:32 145.870
UKube-1 01 May 22:56:45 22:58:34 12° 56° (NE) 23:00:21 .
50 SAT 01 May 22:57:11 22:59:04 14° 61° (ENE) 23:00:58 437.505
PCSat 01 May 22:59:51 23:02:36 14° 20° (NNE) 23:05:20 145.827
ANTELSAT 01 May 23:00:29 23:03:09 16° 89° (E) 23:05:48 437.575/2403.000
BEESAT 2 01 May 23:07:48 23:09:08 11° 338° (NNW) 23:10:29 435.950
Oscar 11 01 May 23:15:26 23:18:25 18° 269° (W) 23:21:25 145.826/435.025
AISAT 01 May 23:17:00 23:20:38 25° 63° (ENE) 23:24:18 437.250
FUNcube-1 01 May 23:25:17 23:28:25 18° 269° (W) 23:31:33 145.935
SPROUT 01 May 23:28:30 23:30:29 13° 58° (ENE) 23:32:28 437.525
ESTCUBE 1 01 May 23:30:24 23:34:35 41° 68° (ENE) 23:38:49 437.505/2401.250
UWE-3 01 May 23:36:07 23:37:15 11° 274° (W) 23:38:22 435.000/436.395/437.385
O/OREOS (USA 219) 01 May 23:38:44 23:40:23 12° 39° (NE) 23:42:02 437.305
HUMSAT D 01 May 23:42:48 23:46:39 34° 263° (W) 23:50:31 437.325/437.525
PRISM 01 May 23:48:26 23:50:05 12° 303° (WNW) 23:51:45 437.425
AO-85 01 May 23:51:41 23:54:54 18° 250° (WSW) 23:57:56 145.980
UNISAT 6 01 May 23:53:40 23:57:57 53° 100° (E) 00:02:08 437.425
NANOSAT C BR1 01 May 23:54:16 23:55:35 11° 87° (E) 23:56:53 145.865
CUBEBUG 1 01 May 23:56:10 00:00:26 52° 70° (ENE) 00:04:44 437.445
GONETS M04 02 May 00:01:11 00:07:05 20° 75° (ENE) 00:12:58
TISAT 1 02 May 00:07:42 00:08:41 11° 56° (NE) 00:09:41 437.305
TIGRISAT 02 May 00:11:33 00:15:56 76° 102° (ESE) 00:20:12 435.000
VELOX 1 02 May 00:20:24 00:24:51 88° 253° (WSW) 00:29:21 145.980
DX 1 02 May 00:21:06 00:25:28 87° 72° (ENE) 00:29:53 434.975-435.025
50 SAT 02 May 00:28:52 00:32:28 56° 259° (W) 00:36:05 437.505
AIST 2 02 May 00:28:56 00:31:30 16° 332° (NNW) 00:34:04 435.215
UKube-1 02 May 00:29:36 00:33:56 89° 76° (ENE) 00:38:18 .
Cosmos 2504 02 May 00:30:34 00:32:41 11° 311° (NW) 00:34:48 435.465 / 435.565
ANTELSAT 02 May 00:36:00 00:40:18 59° 289° (WNW) 00:44:30 437.575/2403.000
CUSAT 1 02 May 00:36:59 00:38:34 11° 51° (NE) 00:40:13 437.405
JAS-2 02 May 00:38:30 00:39:45 10° 78° (ENE) 00:40:59 435.910
RS-15 02 May 00:39:07 00:50:30 65° 318° (NW) 01:02:35 29.354- 29.394
PCSat 02 May 00:42:30 00:47:36 38° 45° (NE) 00:52:39 145.827
QB50P2 02 May 00:43:57 00:47:58 39° 98° (E) 00:51:56 145.880/145.840
DUCHIFAT 1 02 May 00:45:10 00:49:04 35° 97° (E) 00:52:55 145.980
POLYITAN 1 02 May 00:46:06 00:50:07 39° 98° (E) 00:54:05 437.675
POPSAT HIP 1 02 May 00:48:58 00:53:01 41° 98° (E) 00:57:01 437.405
Cosmos 2499 02 May 00:49:43 00:53:59 17° 77° (ENE) 00:58:16 435.465 / 435.565
QB50P1 02 May 00:52:16 00:56:23 45° 99° (E) 01:00:26 145.935-145.965
AISAT 02 May 00:52:44 00:56:56 41° 262° (W) 01:01:12 437.250
SPROUT 02 May 01:01:29 01:05:48 86° 252° (WSW) 01:10:10 437.525
ITUPSAT 1 02 May 01:06:35 01:07:32 11° 52° (NE) 01:08:29 437.325
ESTCUBE 1 02 May 01:07:55 01:11:33 24° 267° (W) 01:15:14 437.505/2401.250
SWISSCUBE 02 May 01:14:56 01:17:20 14° 56° (NE) 01:19:44 437.505
O/OREOS (USA 219) 02 May 01:16:17 01:20:48 61° 61° (ENE) 01:25:16 437.305
NANOSAT C BR1 02 May 01:27:39 01:31:55 81° 285° (WNW) 01:36:07 145.865
UNISAT 6 02 May 01:31:13 01:34:19 19° 299° (WNW) 01:37:22 437.425
BUGSAT 1 02 May 01:31:19 01:35:29 53° 100° (E) 01:39:33 437.445
CUBEBUG 1 02 May 01:33:57 01:37:02 19° 269° (W) 01:40:09 437.445
AIST 1 02 May 01:34:11 01:38:29 72° 97° (E) 01:42:51
TISAT 1 02 May 01:39:21 01:43:36 78° 75° (ENE) 01:47:54 437.305
BEESAT 02 May 01:46:39 01:50:22 23° 61° (ENE) 01:54:05 436.000
TIGRISAT 02 May 01:49:44 01:52:03 14° 302° (WNW) 01:54:20 435.000
GONETS M04 02 May 01:53:41 02:02:33 84° 97° (E) 02:11:26
DX 1 02 May 02:01:06 02:02:18 11° 273° (W) 02:03:31 434.975-435.025
VELOX 1 02 May 02:01:10 02:02:01 10° 274° (W) 02:02:52 145.980
UKube-1 02 May 02:09:41 02:10:38 11° 273° (W) 02:11:35 .
CUSAT 1 02 May 02:15:44 02:22:17 45° 71° (ENE) 02:29:48 437.405
JAS-2 02 May 02:18:55 02:26:27 52° 98° (E) 02:34:03 435.910
QB50P2 02 May 02:20:10 02:23:36 24° 296° (WNW) 02:27:00 145.880/145.840
BEESAT 3 02 May 02:20:53 02:23:25 16° 30° (NNE) 02:25:57 437.485
Oscar 19 02 May 02:20:55 02:25:20 27° 94° (E) 02:29:43 437.125/150
DUCHIFAT 1 02 May 02:21:07 02:24:38 26° 295° (WNW) 02:28:09 145.980
POLYITAN 1 02 May 02:22:20 02:25:44 24° 296° (WNW) 02:29:06 437.675
POPSAT HIP 1 02 May 02:25:14 02:28:36 23° 296° (WNW) 02:31:55 437.405
PCSat 02 May 02:25:57 02:31:05 44° 245° (WSW) 02:36:11 145.827
BEESAT 2 02 May 02:26:28 02:28:34 14° 27° (NNE) 02:30:39 435.950
QB50P1 02 May 02:28:41 02:31:54 21° 297° (WNW) 02:35:05 145.935-145.965
Cosmos 2499 02 May 02:38:53 02:45:59 89° 101° (ESE) 02:53:10 435.465 / 435.565
ITUPSAT 1 02 May 02:39:46 02:44:28 64° 72° (ENE) 02:49:12 437.325
DANDE 02 May 02:49:24 02:55:10 40° 71° (ENE) 03:02:15 436.750
SWISSCUBE 02 May 02:49:40 02:54:25 87° 79° (E) 02:59:13 437.505
RS-15 02 May 02:55:05 03:05:47 37° 350° (N) 03:16:55 29.354- 29.394
O/OREOS (USA 219) 02 May 02:56:48 02:59:43 17° 260° (W) 03:02:38 437.305
NANOSAT C BR1 02 May 03:05:47 03:06:55 11° 304° (NW) 03:08:02 145.865
BUGSAT 1 02 May 03:07:34 03:10:29 18° 299° (WNW) 03:13:22 437.445
AIST 1 02 May 03:14:24 03:16:39 14° 297° (WNW) 03:18:55
TISAT 1 02 May 03:18:11 03:19:50 12° 272° (W) 03:21:29 437.305
BEESAT 02 May 03:23:13 03:27:51 51° 260° (W) 03:32:31 436.000
ITAMSAT 1 02 May 03:37:29 03:41:41 24° 93° (E) 03:45:51 435.822/435.867
Gurwin Techsat 1B 02 May 03:46:41 03:52:00 64° 102° (ESE) 03:57:16 435.225
AIST 2 02 May 03:50:47 03:52:13 11° 21° (NNE) 03:53:39 435.215
GONETS M04 02 May 03:53:23 04:00:32 27° 300° (WNW) 04:07:43
BEESAT 3 02 May 03:57:48 04:01:47 78° 52° (NE) 04:05:44 437.485
CUSAT 1 02 May 03:57:52 04:04:28 47° 267° (W) 04:11:58 437.405
Oscar 19 02 May 03:59:53 04:04:52 46° 292° (WNW) 04:09:48 437.125/150
MOZHAYETS 4 02 May 04:02:17 04:06:31 39° 68° (ENE) 04:10:46
BEESAT 2 02 May 04:03:19 04:07:17 56° 48° (NE) 04:11:12 435.950
JAS-2 02 May 04:04:10 04:11:18 44° 297° (WNW) 04:18:36 435.910
KKS-1 02 May 04:05:24 04:09:51 65° 72° (ENE) 04:14:19 437.445
AO-7 02 May 04:08:40 04:14:54 23° 90° (E) 04:21:06 29.400- 29.500
ITUPSAT 1 02 May 04:19:38 04:22:45 17° 270° (W) 04:25:54 437.325
YUBILEINY 02 May 04:21:01 04:24:13 12° 44° (NE) 04:27:25 435.215
STARS 02 May 04:24:34 04:28:54 55° 71° (ENE) 04:33:16 437.465
SWISSCUBE 02 May 04:30:54 04:32:54 12° 273° (W) 04:34:54 437.505
DANDE 02 May 04:32:09 04:38:05 47° 265° (W) 04:45:25 436.750
Cosmos 2499 02 May 04:35:16 04:40:13 20° 302° (WNW) 04:45:14 435.465 / 435.565
RS-15 02 May 05:10:47 05:22:09 43° 24° (NNE) 05:33:46 29.354- 29.394
ITAMSAT 1 02 May 05:16:25 05:21:27 52° 291° (WNW) 05:26:28 435.822/435.867
HORYU 2 02 May 05:21:15 05:24:07 17° 91° (E) 05:26:56 437.375
Gurwin Techsat 1B 02 May 05:27:28 05:31:31 23° 301° (WNW) 05:35:33 435.225
AIST 2 02 May 05:27:59 05:31:52 37° 43° (NE) 05:35:44 435.215
BEESAT 3 02 May 05:37:07 05:38:55 13° 250° (WSW) 05:40:44 437.485
MOZHAYETS 4 02 May 05:39:58 05:43:49 26° 266° (W) 05:47:40
BEESAT 2 02 May 05:41:59 05:44:46 18° 247° (WSW) 05:47:33 435.950
KKS-1 02 May 05:44:10 05:46:52 16° 270° (W) 05:49:35 437.445
CUBESAT XI-V 02 May 05:44:49 05:49:15 49° 70° (ENE) 05:53:43 437.345
JAS-2 02 May 05:51:41 05:54:30 12° 318° (NW) 05:57:22 435.910
AO-7 02 May 06:00:21 06:08:44 89° 300° (WNW) 06:17:07 29.400- 29.500
STARS 02 May 06:02:33 06:05:37 18° 269° (W) 06:08:41 437.465
YUBILEINY 02 May 06:15:24 06:23:47 48° 71° (ENE) 06:32:07 435.215
Cosmos 2504 02 May 06:24:59 06:29:17 16° 55° (NE) 06:33:41 435.465 / 435.565
CUTE-I 02 May 06:40:25 06:43:14 14° 87° (E) 06:46:03 437.470
STRAND 1 02 May 06:44:11 06:48:17 25° 61° (ENE) 06:52:23 437.568
NOAA 18 02 May 06:45:51 06:49:53 21° 91° (E) 06:53:53 137.9125
BRITE-PL 02 May 06:52:59 06:57:19 22° 89° (E) 07:01:37 437.365/2234.400
HORYU 2 02 May 06:56:41 07:01:04 59° 289° (WNW) 07:05:24 437.375
Cosmos 2491 02 May 07:03:18 07:11:17 40° 85° (E) 07:19:18 435.465 / 435.565
AIST 2 02 May 07:06:37 07:10:19 31° 242° (WSW) 07:13:58 435.215
SO-50 02 May 07:09:03 07:10:58 12° 108° (ESE) 07:12:54 436.795
LilacSat-2 02 May 07:20:04 07:23:15 25° 94° (E) 07:26:24 437.200
Cubesat XI-IV 02 May 07:23:11 07:27:58 33° 96° (E) 07:32:43 437.490
CUBESAT XI-V 02 May 07:23:26 07:26:54 21° 269° (W) 07:30:26 437.345
NOAA 15 02 May 07:23:47 07:28:57 48° 99° (E) 07:34:04 137.62
RS-15 02 May 07:24:05 07:36:25 88° 52° (NE) 07:48:48 29.354- 29.394
PRISM 02 May 07:31:25 07:33:15 13° 58° (ENE) 07:35:07 437.425
AO-7 02 May 07:54:00 08:00:35 27° 312° (NW) 08:07:10 29.400- 29.500
GOMX 1 02 May 08:08:05 08:13:23 46° 97° (E) 08:18:28 467.674
DOVE 4 02 May 08:08:21 08:12:34 24° 91° (E) 08:16:36 437.250
YUBILEINY 02 May 08:12:28 08:20:33 45° 273° (W) 08:28:37 435.215
Cosmos 2504 02 May 08:16:43 08:24:11 68° 78° (ENE) 08:32:11 435.465 / 435.565
CUTE-I 02 May 08:18:40 08:24:01 88° 291° (WNW) 08:29:21 437.470
STRAND 1 02 May 08:22:11 08:27:09 53° 260° (W) 08:32:09 437.568
NOAA 18 02 May 08:25:36 08:31:02 66° 290° (WNW) 08:36:25 137.9125
BRITE-PL 02 May 08:30:35 08:36:15 68° 287° (WNW) 08:41:51 437.365/2234.400
SO-50 02 May 08:45:45 08:50:39 76° 126° (SE) 08:55:35 436.795
M-CUBED/EXP-1 PRIME 02 May 08:46:22 08:50:21 52° 105° (ESE) 08:53:59 437.505
LilacSat-2 02 May 08:54:14 08:57:36 29° 292° (WNW) 09:00:53 437.200
CINEMA 3 02 May 08:57:01 09:00:41 22° 91° (E) 09:04:11 145.822/145.860
Cosmos 2491 02 May 08:59:18 09:07:53 54° 287° (WNW) 09:16:34 435.465 / 435.565
Cubesat XI-IV 02 May 09:03:10 09:08:08 40° 294° (WNW) 09:13:04 437.490
PRISM 02 May 09:03:54 09:08:00 80° 257° (WSW) 09:12:07 437.425
NOAA 15 02 May 09:03:59 09:08:30 29° 298° (WNW) 09:13:02 137.62
CANX-2 02 May 09:05:35 09:09:11 27° 94° (E) 09:12:46 2200.000
AUBIESAT-1 02 May 09:05:37 09:09:38 70° 109° (ESE) 09:13:19 437.475
HO-68 02 May 09:08:15 09:14:42 35° 95° (E) 09:21:06 435.675
AAUSAT CUBESAT 2 02 May 09:09:13 09:10:39 11° 87° (E) 09:12:04 437.432
ISS 02 May 09:18:33 09:21:43 50° 150° (SSE) 09:24:54 145.825
UNISAT 6 02 May 09:22:42 09:24:07 11° 55° (NE) 09:25:30 437.425
RS-15 02 May 09:37:29 09:47:35 32° 256° (WSW) 09:57:42 29.354- 29.394
CUTE 1.7 + AOD 2 02 May 09:38:10 09:42:18 50° 99° (E) 09:46:24 437.475
TIGRISAT 02 May 09:39:04 09:41:41 15° 59° (ENE) 09:44:16 435.000
UWE-3 02 May 09:43:06 09:45:30 15° 88° (E) 09:47:51 435.000/436.395/437.385
DOVE 4 02 May 09:45:30 09:50:33 50° 290° (WNW) 09:55:20 437.250
GOMX 1 02 May 09:46:29 09:51:15 31° 296° (WNW) 09:55:52 467.674
CUBEBUG 2 02 May 09:48:28 09:51:58 23° 92° (E) 09:55:22 437.445
CUTE-I 02 May 10:00:09 10:03:21 16° 305° (NW) 10:06:33 437.470
ANTELSAT 02 May 10:02:13 10:05:56 24° 64° (ENE) 10:09:37 437.575/2403.000
GONETS M04 02 May 10:04:52 10:08:44 13° 45° (NE) 10:12:34
SEEDS 02 May 10:06:32 10:10:45 75° 102° (ESE) 10:14:56 437.485
NOAA 18 02 May 10:08:20 10:10:42 13° 310° (NW) 10:13:05 137.9125
BRITE-PL 02 May 10:10:55 10:13:43 14° 307° (NW) 10:16:31 437.365/2234.400
Cosmos 2504 02 May 10:10:55 10:17:00 28° 277° (W) 10:23:25 435.465 / 435.565
COMPASS 1 02 May 10:11:04 10:15:12 61° 101° (ESE) 10:19:19 437.405
ZACube-1 02 May 10:14:34 10:17:46 21° 92° (E) 10:20:55 437.345
M-CUBED/EXP-1 PRIME 02 May 10:21:41 10:24:31 18° 306° (NW) 10:27:12 437.505
DELFI C3 02 May 10:26:52 10:29:19 16° 90° (E) 10:31:47 145.870
SO-50 02 May 10:27:33 10:31:40 26° 326° (NNW) 10:35:46 436.795
CINEMA 3 02 May 10:33:33 10:38:06 47° 290° (WNW) 10:42:24 145.822/145.860
CANX-2 02 May 10:41:18 10:45:05 33° 292° (WNW) 10:48:52 2200.000
AUBIESAT-1 02 May 10:41:22 10:43:34 14° 308° (NW) 10:45:41 437.475
AAUSAT CUBESAT 2 02 May 10:42:31 10:46:40 77° 286° (WNW) 10:50:49 437.432
NANOSAT C BR1 02 May 10:49:27 10:51:57 15° 59° (ENE) 10:54:26 145.865
ISS 02 May 10:55:01 10:58:13 51° 349° (N) 11:01:26 145.825
UNISAT 6 02 May 10:55:24 11:00:03 74° 73° (ENE) 11:04:38 437.425
HO-68 02 May 10:55:47 11:02:43 56° 295° (WNW) 11:09:39 435.675
Oscar 11 02 May 10:57:12 11:01:30 64° 101° (ESE) 11:05:46 145.826/435.025
Cosmos 2491 02 May 11:02:58 11:07:16 14° 314° (NW) 11:11:37 435.465 / 435.565
FUNcube-1 02 May 11:08:05 11:12:19 69° 103° (ESE) 11:16:26 145.935
TIGRISAT 02 May 11:13:08 11:17:48 81° 256° (WSW) 11:22:24 435.000
CUTE 1.7 + AOD 2 02 May 11:14:50 11:17:49 19° 298° (WNW) 11:20:47 437.475
UWE-3 02 May 11:18:10 11:22:26 62° 288° (WNW) 11:26:34 435.000/436.395/437.385
HUMSAT D 02 May 11:22:31 11:26:03 28° 95° (E) 11:29:34 437.325/437.525
CUBEBUG 2 02 May 11:24:41 11:28:46 39° 291° (WNW) 11:32:43 437.445
AIST 1 02 May 11:37:42 11:41:28 27° 70° (ENE) 11:45:13
ANTELSAT 02 May 11:37:58 11:42:26 45° 261° (W) 11:46:50 437.575/2403.000
QB50P2 02 May 11:39:45 11:43:51 47° 70° (ENE) 11:47:59 145.880/145.840
DUCHIFAT 1 02 May 11:40:14 11:44:15 41° 69° (ENE) 11:48:17 145.980
POLYITAN 1 02 May 11:41:52 11:46:01 48° 70° (ENE) 11:50:10 437.675
SEEDS 02 May 11:43:48 11:45:55 14° 301° (WNW) 11:48:01 437.485
POPSAT HIP 1 02 May 11:44:36 11:48:45 50° 71° (ENE) 11:52:55 437.405
COMPASS 1 02 May 11:47:47 11:50:19 16° 299° (WNW) 11:52:52 437.405
QB50P1 02 May 11:47:51 11:52:02 54° 71° (ENE) 11:56:14 145.935-145.965
ZACube-1 02 May 11:50:16 11:54:17 42° 290° (WNW) 11:58:13 437.345
GONETS M04 02 May 11:59:39 12:08:12 52° 72° (ENE) 12:16:37
DELFI C3 02 May 12:00:38 12:04:30 51° 289° (WNW) 12:08:23 145.870
Oscar 19 02 May 12:06:57 12:07:50 10° 50° (NE) 12:08:44 437.125/150
DX 1 02 May 12:07:44 12:09:21 12° 88° (E) 12:10:58 434.975-435.025
VELOX 1 02 May 12:08:24 12:10:45 14° 89° (E) 12:13:06 145.980
SO-50 02 May 12:11:50 12:13:50 12° 350° (N) 12:15:48 436.795
UKube-1 02 May 12:15:19 12:16:45 11° 88° (E) 12:18:11 .
NANOSAT C BR1 02 May 12:22:54 12:27:10 70° 258° (WSW) 12:31:28 145.865
BUGSAT 1 02 May 12:24:05 12:28:16 60° 72° (ENE) 12:32:28 437.445
Cosmos 2499 02 May 12:24:19 12:31:26 41° 70° (ENE) 12:39:02 435.465 / 435.565
AO-85 02 May 12:30:25 12:32:24 12° 106° (ESE) 12:34:22 145.980
ISS 02 May 12:31:50 12:35:01 48° 9° (N) 12:38:12 145.825
Oscar 11 02 May 12:34:29 12:37:10 16° 300° (WNW) 12:39:51 145.826/435.025
UNISAT 6 02 May 12:34:43 12:37:16 14° 271° (W) 12:39:47 437.425
JAS-2 02 May 12:35:38 12:41:02 32° 58° (ENE) 12:47:01 435.910
AISAT 02 May 12:39:16 12:43:11 29° 95° (E) 12:47:04 437.250
PHONESAT 2.4 02 May 12:45:17 12:47:35 19° 172° (S) 12:49:54 2401.200-2431.200
HO-68 02 May 12:45:20 12:48:59 15° 317° (NW) 12:52:37 435.675
SPROUT 02 May 12:45:36 12:47:37 13° 88° (E) 12:49:37 437.525
FUNcube-1 02 May 12:45:41 12:48:02 15° 301° (WNW) 12:50:22 145.935
TIGRISAT 02 May 12:54:49 12:55:12 10° 274° (W) 12:55:34 435.000
ESTCUBE 1 02 May 12:55:32 13:00:00 54° 100° (E) 13:04:27 437.505/2401.250
HUMSAT D 02 May 12:58:06 13:01:42 30° 293° (WNW) 13:05:16 437.325/437.525
AIST 1 02 May 13:15:08 13:19:07 34° 269° (W) 13:23:06
QB50P2 02 May 13:16:47 13:19:55 20° 268° (W) 13:23:04 145.880/145.840
DUCHIFAT 1 02 May 13:16:48 13:20:08 22° 267° (W) 13:23:29 145.980
CUBEBUG 1 02 May 13:17:08 13:21:35 64° 102° (ESE) 13:25:58 437.445
POLYITAN 1 02 May 13:18:57 13:22:05 19° 268° (W) 13:25:13 437.675
POPSAT HIP 1 02 May 13:21:46 13:24:49 19° 269° (W) 13:27:52 437.405
AO-7 02 May 13:24:17 13:28:15 14° 34° (NE) 13:32:14 29.400- 29.500
QB50P1 02 May 13:25:18 13:28:09 17° 269° (W) 13:31:00 145.935-145.965
50 SAT 02 May 13:28:44 13:32:24 74° 285° (WNW) 13:36:03 437.505
Gurwin Techsat 1B 02 May 13:33:08 13:37:18 24° 60° (ENE) 13:41:29 435.225
Oscar 19 02 May 13:41:02 13:46:05 56° 70° (ENE) 13:51:11 437.125/150
DX 1 02 May 13:41:43 13:46:09 83° 284° (WNW) 13:50:32 434.975-435.025
VELOX 1 02 May 13:43:16 13:47:45 72° 286° (WNW) 13:52:11 145.980
UKube-1 02 May 13:49:02 13:53:25 84° 283° (WNW) 13:57:45 .
SO-50 02 May 13:53:58 13:56:25 14° 15° (NNE) 13:58:50 436.795
GONETS M04 02 May 13:56:51 14:04:51 42° 274° (W) 14:12:49
BUGSAT 1 02 May 14:01:29 14:04:02 15° 270° (W) 14:06:37 437.445
AO-85 02 May 14:06:35 14:12:01 67° 124° (ESE) 14:17:21 145.980
ISS 02 May 14:08:20 14:11:34 60° 208° (SSW) 14:14:47 145.825
AISAT 02 May 14:15:38 14:19:43 35° 293° (WNW) 14:23:45 437.250
Cosmos 2499 02 May 14:17:26 14:24:42 49° 270° (W) 14:32:29 435.465 / 435.565
JAS-2 02 May 14:19:46 14:25:42 56° 262° (W) 14:32:28 435.910
SPROUT 02 May 14:19:47 14:24:06 72° 286° (WNW) 14:28:22 437.525
PHONESAT 2.4 02 May 14:21:35 14:23:51 18° 189° (S) 14:26:07 2401.200-2431.200
ESTCUBE 1 02 May 14:33:08 14:36:28 21° 299° (WNW) 14:39:47 437.505/2401.250
ITUPSAT 1 02 May 14:38:28 14:40:28 12° 87° (E) 14:42:28 437.325
SWISSCUBE 02 May 14:47:13 14:50:20 17° 90° (E) 14:53:27 437.505
CUBEBUG 1 02 May 14:54:29 14:57:24 17° 300° (WNW) 15:00:18 437.445
TISAT 1 02 May 14:55:17 14:59:33 85° 104° (ESE) 15:03:46 437.305
ITAMSAT 1 02 May 14:58:44 15:03:45 53° 69° (ENE) 15:08:48 435.822/435.867
AO-7 02 May 15:11:17 15:18:59 45° 58° (ENE) 15:26:43 29.400- 29.500
Gurwin Techsat 1B 02 May 15:11:38 15:16:52 59° 259° (W) 15:22:09 435.225
BEESAT 02 May 15:19:42 15:23:55 30° 96° (E) 15:28:07 436.000
DX 1 02 May 15:19:59 15:21:37 12° 304° (NW) 15:23:15 434.975-435.025
Oscar 19 02 May 15:21:45 15:25:46 22° 268° (W) 15:29:49 437.125/150
VELOX 1 02 May 15:22:21 15:23:24 11° 306° (NW) 15:24:28 145.980
CUSAT 1 02 May 15:25:55 15:28:40 20° 83° (E) 15:31:57 437.405
UKube-1 02 May 15:27:10 15:28:45 12° 304° (NW) 15:30:20 .
PCSat 02 May 15:30:40 15:33:20 14° 103° (ESE) 15:36:00 145.827
O/OREOS (USA 219) 02 May 15:32:17 15:36:26 35° 107° (ESE) 15:40:37 437.305
SO-50 02 May 15:33:55 15:38:20 34° 39° (NE) 15:42:36 436.795
ISS 02 May 15:46:20 15:47:28 11° 226° (SW) 15:48:37 145.825
AO-85 02 May 15:48:07 15:52:57 31° 323° (NW) 15:57:39 145.980
SPROUT 02 May 15:58:58 15:59:16 10° 305° (NW) 15:59:33 437.525
DANDE 02 May 16:06:19 16:08:17 16° 84° (E) 16:10:31 436.750
ITUPSAT 1 02 May 16:14:11 16:18:58 88° 293° (WNW) 16:23:46 437.325
HORYU 2 02 May 16:22:25 16:26:04 25° 63° (ENE) 16:29:44 437.375
SWISSCUBE 02 May 16:23:51 16:28:36 65° 288° (WNW) 16:33:18 437.505
TISAT 1 02 May 16:32:42 16:34:35 13° 303° (WNW) 16:36:28 437.305
ITAMSAT 1 02 May 16:39:24 16:43:32 24° 267° (W) 16:47:42 435.822/435.867
NOAA 18 02 May 16:39:36 16:41:06 11° 48° (NE) 16:42:36 137.9125
BEESAT 02 May 16:57:24 17:01:45 36° 294° (WNW) 17:06:05 436.000
AO-7 02 May 17:03:41 17:11:41 52° 258° (WSW) 17:19:45 29.400- 29.500
CUSAT 1 02 May 17:06:51 17:10:19 37° 292° (WNW) 17:14:50 437.405
Cosmos 2491 02 May 17:08:34 17:15:37 25° 58° (ENE) 17:22:34 435.465 / 435.565
NOAA 15 02 May 17:10:00 17:13:36 19° 56° (ENE) 17:17:13 137.62
PCSat 02 May 17:10:26 17:15:52 82° 122° (ESE) 17:21:20 145.827
O/OREOS (USA 219) 02 May 17:11:42 17:15:52 32° 306° (NW) 17:20:01 437.305
Cubesat XI-IV 02 May 17:12:06 17:14:46 14° 53° (NE) 17:17:27 437.490
SO-50 02 May 17:14:26 17:18:58 45° 240° (WSW) 17:23:20 436.795
KKS-1 02 May 17:29:07 17:33:38 79° 105° (ESE) 17:38:05 437.445
MOZHAYETS 4 02 May 17:30:14 17:34:44 55° 100° (E) 17:39:14
AO-85 02 May 17:32:17 17:35:04 14° 346° (NNW) 17:37:47 145.980
GOMX 1 02 May 17:44:56 17:47:06 13° 52° (NE) 17:49:19 467.674
STARS 02 May 17:46:30 17:50:55 65° 103° (ESE) 17:55:16 437.465
DANDE 02 May 17:48:02 17:50:45 27° 293° (WNW) 17:54:06 436.750
ITUPSAT 1 02 May 17:53:40 17:56:08 14° 304° (NW) 17:58:34 437.325
HORYU 2 02 May 17:58:14 18:02:27 41° 261° (W) 18:06:41 437.375
HO-68 02 May 18:00:15 18:01:25 10° 37° (NE) 18:02:35 435.675
M-CUBED/EXP-1 PRIME 02 May 18:02:24 18:05:46 20° 55° (NE) 18:09:05 437.505
SWISSCUBE 02 May 18:04:28 18:05:29 11° 307° (NW) 18:06:31 437.505
CUTE-I 02 May 18:05:03 18:09:47 34° 64° (ENE) 18:14:33 437.470
LilacSat-2 02 May 18:05:42 18:08:45 22° 65° (ENE) 18:11:48 437.200
BRITE-PL 02 May 18:07:11 18:11:30 31° 63° (ENE) 18:16:07 437.365/2234.400
NOAA 18 02 May 18:15:16 18:20:38 55° 69° (ENE) 18:26:00 137.9125
AUBIESAT-1 02 May 18:20:55 18:24:34 23° 57° (ENE) 18:28:09 437.475
NOAA 15 02 May 18:47:30 18:52:47 78° 256° (WSW) 18:58:06 137.62
Cubesat XI-IV 02 May 18:48:40 18:53:59 75° 73° (ENE) 18:59:19 437.490
PCSat 02 May 18:55:29 18:59:54 25° 324° (NW) 19:04:22 145.827
Cosmos 2491 02 May 19:04:50 19:13:44 87° 262° (W) 19:22:31 435.465 / 435.565
KKS-1 02 May 19:07:07 19:09:37 15° 302° (WNW) 19:12:05 437.445
MOZHAYETS 4 02 May 19:08:13 19:11:32 20° 299° (WNW) 19:14:51
CUBESAT XI-V 02 May 19:14:38 19:19:20 76° 102° (ESE) 19:24:03 437.345
AO-85 02 May 19:15:11 19:17:45 14° 11° (NNE) 19:20:13 145.980
DOVE 4 02 May 19:16:29 19:21:11 36° 66° (ENE) 19:26:00 437.250
GOMX 1 02 May 19:19:05 19:24:07 67° 72° (ENE) 19:29:29 467.674
YUBILEINY 02 May 19:20:55 19:29:07 48° 88° (E) 19:37:19 435.215
STARS 02 May 19:23:57 19:26:48 17° 301° (WNW) 19:29:40 437.465
BEESAT 3 02 May 19:29:10 19:32:52 40° 120° (ESE) 19:36:35 437.485
SEEDS 02 May 19:29:46 19:30:38 11° 57° (ENE) 19:31:31 437.485
M-CUBED/EXP-1 PRIME 02 May 19:35:09 19:39:51 69° 251° (WSW) 19:44:31 437.505
BEESAT 2 02 May 19:36:25 19:39:54 29° 118° (ESE) 19:43:25 435.950
LilacSat-2 02 May 19:39:19 19:42:54 35° 263° (W) 19:46:29 437.200
HO-68 02 May 19:40:44 19:47:13 39° 60° (ENE) 19:53:43 435.675
CUTE-I 02 May 19:44:49 19:49:47 39° 263° (W) 19:54:46 437.470
BRITE-PL 02 May 19:45:13 19:49:49 41° 264° (W) 19:54:49 437.365/2234.400
AUBIESAT-1 02 May 19:54:11 19:58:45 53° 254° (WSW) 20:03:14 437.475
NOAA 18 02 May 19:57:08 20:01:37 25° 267° (W) 20:06:07 137.9125
CINEMA 3 02 May 20:01:15 20:05:43 33° 66° (ENE) 20:10:11 145.822/145.860
CANX-2 02 May 20:01:46 20:05:28 30° 67° (ENE) 20:09:10 2200.000
AAUSAT CUBESAT 2 02 May 20:03:02 20:05:06 14° 60° (ENE) 20:07:11 437.432
Oscar 11 02 May 20:23:05 20:24:02 11° 56° (NE) 20:24:59 145.826/435.025
STRAND 1 02 May 20:28:51 20:33:40 39° 98° (E) 20:38:27 437.568
Cubesat XI-IV 02 May 20:31:11 20:34:39 17° 271° (W) 20:38:08 437.490
NOAA 15 02 May 20:31:38 20:33:27 12° 275° (W) 20:35:16 137.62
FUNcube-1 02 May 20:33:44 20:35:26 12° 57° (ENE) 20:37:07 145.935
CUTE 1.7 + AOD 2 02 May 20:34:04 20:38:12 56° 72° (ENE) 20:42:20 437.475
UWE-3 02 May 20:42:58 20:46:27 22° 63° (ENE) 20:49:53 435.000/436.395/437.385
PCSat 02 May 20:43:49 20:45:22 11° 349° (N) 20:46:56 145.827
PRISM 02 May 20:44:09 20:45:20 11° 88° (E) 20:46:30 437.425
CUBEBUG 2 02 May 20:49:23 20:53:36 33° 67° (ENE) 20:57:45 437.445
CUBESAT XI-V 02 May 20:53:17 20:56:10 16° 301° (WNW) 20:59:04 437.345
DOVE 4 02 May 20:54:06 20:58:50 36° 265° (W) 21:03:44 437.250
AO-85 02 May 20:55:27 20:59:53 30° 36° (NE) 21:03:59 145.980
GOMX 1 02 May 20:59:06 21:02:44 19° 272° (W) 21:06:32 467.674
